#timestamp,LO_Frequency,Hit,StdDev 
1633842015.5,286046998.4,N
1633842035.3,286046998.9,N
1633842055.2,286046998.3,N
1633842075.9,286046998.5,N
1633842095.7,286046998.4,N
1633842115.6,286047001.2,N
1633842135.4,286047001.2,N
1633842155.2,286047001.1,N
1633842175.1,286047001.2,N
1633842176.0,286047001.2,N
1633842195.8,286047000.8,N
1633842215.6,286046998.8,N
1633842235.5,286046998.9,N
1633842255.3,286046996.5,N
1633842275.1,286046999.4,N
1633842295.9,286046999.3,N
1633842315.7,286046996.8,N
1633842335.5,286046997.2,N
1633842355.4,286046997.0,N
1633842375.2,286046997.2,N
1633842395.0,286046997.4,N
1633842395.9,286046997.4,N
1633842415.8,286046997.7,N
1633842435.6,286046997.0,N
1633842455.4,286046994.9,Y
1633842475.3,286046997.9,P
1633842495.1,286046997.8,P
1633842515.8,286046998.0,P
1633842535.7,286046997.7,Y
1633842555.5,286046996.6,P
1633842575.3,286046998.1,N
1633842595.2,286046998.9,N
1633842615.9,286046996.5,Y
1633842635.7,286047002.8,P
1633842655.6,286047002.0,N
1633842675.4,286047000.1,N
1633842695.2,286047002.1,N
1633842715.1,286047002.2,N
1633842716.0,286047002.2,N
1633842735.8,286047002.5,N
1633842755.6,286046999.7,N
1633842775.5,286047000.1,N
1633842795.3,286047000.1,N
1633842815.1,286047002.5,N
1633842835.9,286047001.8,N
1633842855.7,286047004.4,Y
1633842875.5,286047002.8,P
1633842895.4,286047001.6,N
1633842915.2,286047001.7,N
1633842935.0,286047001.9,Y
1633842935.9,286047001.9,P
1633842955.8,286047000.9,P
1633842975.6,286047000.9,N
1633842995.4,286047000.5,N
1633843015.3,286047002.4,Y
1633843035.1,286046998.8,P
1633843055.8,286047000.8,N
1633843075.7,286047000.6,N
1633843095.5,286046998.5,N
1633843115.3,286046998.2,N
1633843135.2,286047001.0,N
1633843155.9,286047000.8,N
1633843175.7,286047000.7,N
1633843195.6,286047000.0,N
1633843215.4,286046999.8,N
1633843235.2,286047000.9,N
1633843255.1,286046999.8,N
1633843256.0,286046999.8,N
1633843275.8,286046998.3,N
1633843295.6,286046998.3,N
1633843315.5,286046998.5,N
1633843335.3,286047000.0,N
1633843355.1,286047000.4,N
1633843375.9,286047001.2,N
1633843395.7,286047000.7,N
1633843415.5,286047000.5,N
1633843435.4,286047000.2,N
1633843455.2,286046999.8,N
1633843475.0,286047001.4,N
1633843475.9,286047001.4,N
1633843495.8,286047002.6,N
1633843515.6,286046999.7,N
1633843535.4,286047000.4,N
1633843555.3,286047000.0,N
1633843575.1,286047001.0,N
1633843576.0,286047001.0,N
1633843595.8,286047011.9,Y
1633843615.7,286046999.8,P
1633843635.5,286047001.9,P
1633843655.3,286047001.8,N
1633843675.2,286047004.3,Y
1633843695.9,286047001.5,P
1633843715.7,286047001.5,P
1633843735.6,286047003.9,P
1633843755.4,286047004.2,Y
1633843775.2,286047000.7,P
1633843795.1,286047000.2,N
1633843796.0,286047000.2,N
1633843815.8,286047002.8,Y
1633843835.6,286047002.6,P
1633843855.5,286047002.1,N
1633843875.3,286047001.9,N
1633843895.1,286047001.9,N
1633843915.9,286047004.1,Y
1633843935.7,286047000.1,P
1633843955.5,286047002.1,N
1633844005.4,286047003.7,E
1633844015.3,286047000.0,N
1633844035.1,286046999.1,P
1633844055.9,286046998.4,P
1633844075.7,286046999.6,N
1633844095.5,286047001.1,N
1633844115.4,286047000.3,N
1633844135.2,286046999.9,N
1633844155.0,286047001.0,N
1633844155.9,286047001.0,N
1633844175.8,286047000.4,N
1633844195.6,286047000.3,N
1633844215.4,286047000.0,N
1633844235.3,286047002.7,Y
1633844255.1,286046999.8,P
1633844275.8,286047001.6,P
1633844295.7,286047002.2,N
1633844315.5,286047003.3,Y
1633844335.3,286047004.4,P
1633844355.2,286047003.6,N
1633844375.0,286047003.5,N
1633844375.9,286047003.5,N
1633844395.7,286047002.9,N
1633844415.6,286047003.1,N
1633844435.4,286047003.8,Y
1633844455.2,286046999.8,P
1633844475.1,286047002.7,N
1633844476.0,286047002.7,N
1633844495.8,286047002.0,N
1633844515.6,286047002.7,N
1633844535.5,286047001.8,N
1633844555.3,286047003.7,Y
1633844575.1,286047002.2,P
1633844595.9,286047004.1,P
1633844615.7,286047003.0,P
1633844635.5,286047005.6,Y
1633844655.4,286047002.5,P
1633844675.2,286047001.7,P
1633844695.0,286047001.8,P
1633844696.0,286047001.8,Y
1633844715.8,286047000.6,P
1633844735.6,286047001.2,N
1633844755.5,286046998.1,N
1633844775.3,286046998.3,N
1633844795.1,286046999.3,N
1633844815.9,286047001.1,N
1633844835.7,286047001.1,N
1633844855.5,286047000.3,N
1633844875.4,286047000.2,N
1633844895.2,286046999.9,N
1633844915.0,286047002.2,N
1633844915.9,286047002.2,N
1633844935.8,286047002.2,N
1633844955.6,286047002.3,N
1633844975.4,286046999.8,N
1633844995.3,286047002.7,N
1633845015.1,286047003.5,N
1633845016.0,286047003.5,N
1633845035.8,286047003.2,N
1633845055.7,286047004.1,N
1633845075.5,286047002.0,N
1633845095.3,286047003.9,N
1633845115.2,286047004.2,N
1633845135.9,286047003.5,N
1633845155.7,286047003.6,N
1633845175.6,286047003.8,N
1633845195.4,286047003.2,N
1633845215.2,286047005.9,Y
1633845235.1,286047003.2,P
1633845236.0,286047003.2,P
1633845255.8,286047005.9,P
1633845275.6,286047003.0,N
1633845295.5,286047005.9,Y
1633845315.3,286047004.4,P
1633845335.1,286047004.3,P
1633845355.9,286047003.5,P
1633845375.7,286047003.6,Y
1633845395.5,286047000.9,P
1633845415.4,286046999.8,N
1633845435.2,286047002.4,N
1633845455.0,286047002.7,N
1633845455.9,286047002.7,N
1633845475.8,286047000.4,N
1633845495.6,286046999.7,N
1633845515.4,286047001.8,N
1633845535.3,286047003.7,N
1633845555.1,286047004.4,Y
1633845575.8,286047001.9,P
1633845595.7,286047001.8,P
